This is the latest recevied weather packets stored in our database for station/object WA1NHP. If no packets are shown the sender has not sent any weather packets the latest 10 day(s).
| Time | Temp. | Humidity | Pressure | Rain* | Wind** | Luminosity | Snow |
|---|---|---|---|---|---|---|---|
| 1777998243 | 26.11° C | 42% | 1023.9 hPa | 0 mm | - | 891 W/m² | - |
| 1777997644 | 25.56° C | 45% | 1023.9 hPa | 0 mm | - | 942 W/m² | - |
| 1777997044 | 25.56° C | 44% | 1023.9 hPa | 0 mm | - | 909 W/m² | - |
| 1777996444 | 24.44° C | 44% | 1023.9 hPa | 0 mm | - | 889 W/m² | - |
| 1777995843 | 24.44° C | 46% | 1023.9 hPa | 0 mm | - | 896 W/m² | - |
| 1777995244 | 23.89° C | 46% | 1023.9 hPa | 0 mm | - | 900 W/m² | - |
| 1777994644 | 23.89° C | 47% | 1023.9 hPa | 0 mm | - | 851 W/m² | - |
| 1777994044 | 23.89° C | 49% | 1023.9 hPa | 0 mm | - | 879 W/m² | - |
| 1777993443 | 23.33° C | 53% | 1023.9 hPa | 0 mm | - | 891 W/m² | - |
| 1777992844 | 22.22° C | 53% | 1023.9 hPa | 0 mm | - | 812 W/m² | - |
| 1777992244 | 21.11° C | 54% | 1023.9 hPa | 0 mm | - | 830 W/m² | - |
| 1777991644 | 21.11° C | 54% | 1023.9 hPa | 0 mm | - | 789 W/m² | - |
| 1777991043 | 20.56° C | 58% | 1023.9 hPa | 0 mm | - | 775 W/m² | - |
| 1777990444 | 20° C | 58% | 1023.9 hPa | 0 mm | - | 770 W/m² | - |
| 1777989844 | 18.89° C | 60% | 1023.9 hPa | 0 mm | - | 729 W/m² | - |
| 1777989244 | 18.89° C | 61% | 1023.9 hPa | 0 mm | - | 729 W/m² | - |
| 1777988644 | 17.78° C | 63% | 1023.9 hPa | 0 mm | - | 700 W/m² | - |
| 1777988044 | 17.22° C | 65% | 1023.9 hPa | 0 mm | - | 698 W/m² | - |
| 1777987444 | 16.67° C | 67% | 1023.9 hPa | 0 mm | - | 179 W/m² | - |
| 1777986844 | 16.11° C | 67% | 1023.9 hPa | 0 mm | - | 132 W/m² | - |
| 1777986244 | 16.11° C | 66% | 1023.9 hPa | 0 mm | - | 144 W/m² | - |
| 1777985644 | 15.56° C | 67% | 1023.9 hPa | 0 mm | - | 144 W/m² | - |
| 1777985044 | 15° C | 70% | 1023.9 hPa | 0 mm | - | 174 W/m² | - |
| 1777984443 | 14.44° C | 71% | 1023.9 hPa | 0 mm | - | 130 W/m² | - |
| 1777983844 | 13.89° C | 73% | 1023.9 hPa | 0 mm | - | 114 W/m² | - |
* Rain latest hour (hover to see other rain measurements)
** Current wind speed in m/s (hover to see current wind gust speed)